Regional Weather Roundup
Issued by NWS

Home | Current Version | Previous Version | Text Only | Print | Product List | Glossary On
Versions: 1 2 3 4 5 6 7 8 9 10 11 12 13 14 15 16 17 18 19 20 21 22 23 24 25 26 27 28
000
ASUS44 KLIX 170013
RWRLA
LOUISIANA WEATHER ROUNDUP
NATIONAL WEATHER SERVICE NEW ORLEANS LA
700 PM CDT WED AUG 16 2017

NOTE: "FAIR" INDICATES FEW OR NO CLOUDS BELOW 12,000 FEET WITH NO
      SIGNIFICANT WEATHER AND/OR OBSTRUCTIONS TO VISIBILITY.
      SKY/WX - SKY CONDITION AND SIGNIFICANT WEATHER.
      TMP - AIR TEMPERATURE.    DP   - DEWPOINT TEMPERATURE.
      RH  - RELATIVE HUMIDITY.  PRES - PRESSURE.
      HX  - HEAT INDEX.         WCI  - WIND CHILL INDEX.

*  THESE STATIONS ARE NOT NWS OR FAA STATIONS AND ARE NOT UNDER
   NWS QUALITY CONTROL.

LAZ040-048-061>063-065-066-069-170100-
SOUTHEAST LOUISIANA

CITY           SKY/WX    TMP DP  RH WIND       PRES   REMARKS
N.O. INTL ARPT MOCLDY    80  77  90 S3        30.04S
6HR MIN TEMP:  77; 6HR MAX TEMP:  93; 6HR PCP:  0.26;

N.O. LAKEFRONT CLOUDY    83  76  79 NW3       30.04S
6HR MIN TEMP:  81; 6HR MAX TEMP:  93; 6HR PCP:  0.01;

N.O. DOWNTOWN* FAIR      85  74  69 CALM      30.05S
6HR MIN TEMP:  83; 6HR MAX TEMP:  96;

RESERVE*       FAIR      84  75  74 E3        30.04S
6HR MIN TEMP:  81; 6HR MAX TEMP:  96;

SLIDELL        MOCLDY    83  75  77 E3        30.04R
6HR MIN TEMP:  81; 6HR MAX TEMP:  93; 6HR PCP: TRACE;

BATON ROUGE    CLOUDY    78  74  87 NE5       30.03F
6HR MIN TEMP:  76; 6HR MAX TEMP:  82; 6HR PCP:  0.14;

BOOTHVILLE     CLEAR     88  78  72 SW6       30.05R HX 101
6HR MIN TEMP:  88; 6HR MAX TEMP:  91;

BELLE CHASSE   PTCLDY    90  78  68 NE3       30.03F HX 104
BOGALUSA*      FAIR      82  75  79 NE3       30.07R
6HR MIN TEMP:  81; 6HR MAX TEMP:  93; 6HR PCP:  0.01;

GALLIANO*      CLEAR     87  74  66 SW3       30.03F HX  95
6HR MIN TEMP:  87; 6HR MAX TEMP:  91;

NEW ROADS*     FAIR      76  73  91 E3        30.03S
6HR MIN TEMP:  76; 6HR MAX TEMP:  78; 6HR PCP:  0.01;

GONZALES*      FAIR      80  76  87 CALM      30.02F
6HR MIN TEMP:  77; 6HR MAX TEMP:  92; 6HR PCP:  0.13;

HAMMOND*       PTCLDY    79  72  78 SE3       30.05R
HOUMA*         PTCLDY    88  77  70 CALM      30.03S HX 100
PORT FOURCHON* CLEAR     88  75  66 SW7       30.04S HX  97

$$

LAZ041-044-053-054-170100-
SOUTHWEST LOUISIANA

CITY           SKY/WX    TMP DP  RH WIND       PRES   REMARKS
LAKE CHARLES   CLOUDY    87  77  72 S7        29.98S HX  99
6HR MIN TEMP:  86; 6HR MAX TEMP:  88;

LAFAYETTE      MOCLDY    85  81  88 S3        30.01S HX 100
6HR MIN TEMP:  83; 6HR MAX TEMP:  88;

PATTERSON      CLEAR     87  78  74 SW7       30.03R HX 100
6HR MIN TEMP:  87; 6HR MAX TEMP:  91;

SALT POINT       N/A     88  77  69 VRB3      30.01R HX 100
6HR MIN TEMP:  88; 6HR MAX TEMP:  91;

NEW IBERIA     MOCLDY    85  77  77 S6        30.02R HX  95
6HR MIN TEMP:  85; 6HR MAX TEMP:  92;

CHENAULT AIRPK PTSUNNY   86  79  79 S9        29.99S HX  99

$$

LAZ027-028-170100-
CENTRAL LOUISIANA

CITY           SKY/WX    TMP DP  RH WIND       PRES   REMARKS
FORT POLK      PTSUNNY   83  79  86 SE8       29.98S
6HR MIN TEMP:  80; 6HR MAX TEMP:  85;

ALEXANDRIA INT PTCLDY    80  76  87 SE10      29.98F
6HR MIN TEMP:  76; 6HR MAX TEMP:  80; 6HR PCP:  0.10;

ALEXANDRIA     CLOUDY    79  75  87 SE7       30.00S
6HR MIN TEMP:  77; 6HR MAX TEMP:  81; 6HR PCP: TRACE;


$$

LAZ001-002-170100-
NORTHWEST LOUISIANA

CITY           SKY/WX    TMP DP  RH WIND       PRES   REMARKS
SHREVEPORT     PTSUNNY   91  75  59 S12       29.92S HX 101
6HR MIN TEMP:  91; 6HR MAX TEMP:  95;

BARKSDALE AFB  CLOUDY    89  78  70 SE8       29.92F HX 102
6HR MIN TEMP:  87; 6HR MAX TEMP:  96;

DTN SHREVEPORT CLOUDY    93  75  55 S7        29.92F HX 104
6HR MIN TEMP:  91; 6HR MAX TEMP:  96;


$$

LAZ014-016-170100-
NORTHEAST LOUISIANA

CITY           SKY/WX    TMP DP  RH WIND       PRES   REMARKS
MONROE         CLOUDY    79  74  84 S6        29.99F
6HR MIN TEMP:  78; 6HR MAX TEMP:  94;

TALLULAH       LGT RAIN  78  76  93 S3        30.03R
6HR MIN TEMP:  76; 6HR MAX TEMP:  91; 6HR PCP:  0.81;


$$





USA.gov is the U.S. government's official web portal to all federal, state and local government web resources and services.